カタログに戻る

DELTA 1 DEB

運用中SSO
NORAD 12530·DEBRIS·🇺🇸 United States

打ち上げ Jul 29, 1976 から Vandenberg Space Force Base

Loading…

次のパス (今後24時間)

TLE

最新Source: Space-Track

元期: Sep 14, 2026, 10:44 UTC

1 12530U 76077DK  26257.44749307 -.00000050  00000-0 -38590-4 0  9994
2 12530 102.5742 246.9241 0126491 160.5302 354.0831 12.27058169 94033

AllMySatでDELTA 1 DEBをリアルタイム追跡

Download on the App Store